Powrót do katalogu

FENGYUN 1C DEB

AktywnyPO
NORAD 30047·DEBRIS·🇨🇳 China

Wystrzelony May 10, 1999 z Taiyuan Satellite Launch Center

Loading…

Następne Przeloty (najbliższe 24 godziny)

TLE

ŚwieżeSource: Space-Track

Epoka: Sep 14, 2026, 19:09 UTC

1 30047U 99025NY  26257.79793635  .00000615  00000-0  46558-3 0  9993
2 30047  99.9419  80.6072 0124741 309.5934  62.0278 13.94815806997647

Śledź FENGYUN 1C DEB w czasie rzeczywistym z AllMySat

Download on the App Store